Location: Albuquerque Trailhead
(34.7934°N, 106.3736°W)
Time: 01:59:34
(UTC+00:00)

X-37B - Pass Details

Date: 20 June 2021
Orbit: 383 x 392 km, 45.0° (Epoch: 01 July)

Event Time Altitude Azimuth Distance (km) Brightness Sun altitude
Exits shadow 08:10:09 12° 15° (NNE) 1,295 4.1 -29.9°
Drops below altitude 10° 08:10:52 10° 28° (NNE) 1,405 4.3 -29.8°
Sets 08:13:50 0° 58° (ENE) 2,260 5.1 -29.7°
